SCP
1 1 1 0 0 0 0 0 0 0 0 0 1 1 1 1 0 0 0 0 0 0 0 0 0 0 0 0 0 0 0 0 0 0 0 0 0 0
1 1 1 1 1 0 1 1 1 0 0 1 1 1 1 1 0 0 0 0 0 0 0 0 0 0 0 0 0 0 0 0 0 0 0 0 0 0
1 1 1 1 1 1 1 1 1 1 1 1 1 1 1 1 1 1 0 0 0 0 0 0 0 0 0 0 0 0 0 0 0 0 0 0 0 0
1 1 1 1 1 1 1 1 1 1 1 1 1 1 1 1 1 1 0 0 0 0 0 0 0 0 0 0 0 0 0 0 0 0 0 0 0 0
1 1 1 1 1 1 1 1 1 1 1 1 1 1 1 1 1 1 1 0 0 0 0 0 0 0 0 0 0 0 0 0 0 0 0 0 0 0
1 1 1 1 1 1 1 1 1 1 1 1 1 1 1 1 1 1 1 0 0 0 0 0 0 0 0 0 0 0 0 0 0 0 0 0 0 0
1 1 1 1 1 1 1 1 1 1 1 1 1 1 1 1 1 1 0 0 0 0 0 0 0 0 0 0 0 0 0 0 0 0 0 0 0 0
1 1 1 1 1 1 0 0 0 1 1 1 1 1 1 1 1 1 0 0 0 0 0 0 0 0 0 0 0 0 0 0 0 0 0 0 0 0
1 1 1 1 1 1 0 0 0 0 0 1 1 1 1 1 1 0 0 0 0 0 0 0 0 0 0 0 0 0 0 0 0 0 0 0 0 0
1 1 1 1 1 1 1 1 0 0 0 0 0 0 0 0 0 0 0 0 0 0 0 0 0 0 0 0 0 0 0 0 0 0 0 0 0 0
1 1 1 1 1 1 1 1 1 0 0 0 0 0 0 0 0 0 0 0 0 0 0 0 0 0 0 0 0 0 0 0 0 0 0 0 0 0
1 1 1 1 0 0 0 1 1 1 0 0 0 0 0 0 0 0 0 0 0 0 0 0 0 0 0 0 0 0 0 0 0 0 0 0 0 0
1 1 1 0 0 0 0 1 0 0 0 0 0 0 0 0 0 0 0 0 0 0 0 0 0 0 0 0 0 0 0 0 0 0 0 0 0 0
1 1 1 0 0 0 0 0 0 0 0 0 0 0 0 0 0 0 0 0 0 0 0 0 0 0 0 0 0 0 0 0 0 0 0 0 0 0
1 1 0 0 0 0 0 0 0 0 0 0 0 0 0 0 0 0 0 0 0 0 0 0 0 0 0 0 0 0 0 0 0 0 0 0 0 0
0 0 0 0 0 0 0 0 0 0 0 0 0 0 0 0 0 0 0 0 0 0 0 0 0 0 0 0 0 0 0 0 0 0 0 0 0 0
0 0 0 0 0 0 0 0 0 0 0 0 0 0 0 0 0 0 0 0 0 0 0 0 0 0 0 0 0 0 0 0 0 0 0 0 0 0
0 0 0 0 0 0 0 0 0 0 0 0 0 0 0 0 0 0 0 0 0 0 0 0 0 0 0 0 0 0 0 0 0 0 0 0 0 0
0 1 1 1 0 0 0 0 0 0 0 0 0 0 0 0 0 0 0 0 0 0 0 0 0 0 0 0 0 0 0 0 0 0 0 0 0 0
1 1 1 1 0 0 0 0 0 0 0 0 0 0 0 0 0 0 0 0 0 0 0 0 0 0 0 0 0 0 0 0 0 0 0 0 0 0
0 1 1 0 0 0 0 0 0 0 0 0 0 0 0 0 0 0 0 0 0 0 0 0 0 0 0 0 0 0 0 0 0 0 0 0 0 0
1 0 1 1 0 0 0 0 0 0 0 0 0 0 0 0 0 0 0 0 0 0 0 0 0 0 0 0 0 0 0 0 0 0 0 0 0 0
1 0 1 1 0 0 0 0 0 0 0 0 0 0 0 0 0 0 0 0 0 0 0 0 0 0 0 0 0 0 0 0 0 0 0 0 0 0
Wind_Speed
3 3 3 3 3 2 2 2 2 2 3 2 1 0 1 2 5 4 4 7 7 7 6 6 5 5 4 3 3 2 2 3 3 4 4 4 5 5
3 3 3 3 2 2 2 2 2 2 3 1 1 1 0 1 4 2 3 7 8 8 7 7 6 5 5 4 4 3 3 3 3 3 4 4 4 4
4 4 3 3 3 2 2 2 2 1 2 2 1 1 1 1 2 2 3 4 5 8 8 7 7 6 6 5 5 4 4 3 3 3 3 4 4 4
4 4 3 3 3 3 2 3 2 2 2 3 2 2 2 2 2 3 3 4 3 7 9 9 8 8 7 6 5 5 4 3 3 3 3 4 4 4
4 4 3 3 3 3 2 3 3 3 2 2 3 2 1 1 1 2 2 1 3 5 8 8 8 8 8 7 6 5 4 4 4 4 3 3 3 4
4 4 3 3 3 3 4 3 3 3 3 3 2 2 1 1 1 1 2 1 1 2 2 4 5 7 7 7 7 6 5 5 4 4 4 4 4 4
4 3 3 3 3 3 3 1 2 2 2 2 2 2 1 1 1 2 2 1 1 1 1 2 3 3 4 6 6 7 7 6 5 5 4 4 4 4
4 3 3 3 3 4 3 2 2 2 2 2 2 2 2 1 1 2 1 1 2 1 1 2 2 3 3 3 6 7 7 7 6 6 5 5 5 5
4 3 4 3 3 2 3 4 3 4 4 3 3 2 2 1 1 2 2 2 3 2 1 2 2 2 2 3 6 8 7 7 7 6 6 6 6 6
5 5 4 3 3 2 2 2 2 2 3 3 2 2 2 1 2 3 3 3 2 2 1 2 1 1 1 2 7 8 8 8 7 7 7 6 6 6
5 5 4 4 4 2 2 3 2 2 2 2 2 2 2 3 2 2 2 2 2 2 1 1 2 2 2 2 5 9 8 8 7 8 8 7 6 5
4 4 5 5 5 4 3 3 3 3 2 2 2 3 4 5 6 4 2 2 2 2 2 1 1 1 2 2 2 3 4 5 7 7 7 6 6 3
3 3 3 5 5 5 4 3 4 3 3 4 4 4 4 3 3 3 3 2 2 3 2 1 2 2 2 2 2 2 3 2 3 4 5 6 6 4
3 2 2 4 4 4 4 4 5 4 3 4 3 3 3 2 2 2 3 3 3 3 3 2 2 2 3 3 2 2 2 2 2 2 2 4 4 4
2 1 3 4 4 4 6 6 4 4 4 4 3 3 2 2 2 2 2 3 4 4 4 3 3 2 3 3 3 2 2 2 2 2 1 2 3 2
2 2 3 5 4 4 3 4 4 4 3 3 3 2 1 2 2 2 2 1 2 3 3 3 3 3 3 4 2 2 1 1 1 2 2 2 2 2
2 1 2 2 2 2 2 2 2 1 1 1 1 1 1 1 2 2 2 2 2 3 2 2 2 2 3 3 2 2 2 1 1 1 1 1 2 2
3 3 3 3 3 2 2 2 1 1 1 1 1 1 1 2 1 1 1 1 2 2 2 2 1 1 1 2 2 2 2 2 1 1 1 2 2 1
3 3 3 3 3 2 2 2 2 1 1 1 1 1 1 2 2 2 2 1 1 2 2 2 1 2 2 3 3 2 2 2 1 1 1 2 2 2
3 2 2 2 1 1 1 1 1 1 1 1 1 1 1 2 2 2 2 1 1 2 2 2 1 2 3 3 3 3 4 3 1 1 2 1 1 1
2 2 1 1 1 1 1 1 1 1 1 1 1 1 2 1 2 2 2 2 2 2 2 2 2 3 2 2 2 2 2 3 2 2 2 2 2 2
3 2 2 2 2 1 1 1 1 1 1 2 2 1 1 1 2 2 2 2 2 2 2 2 2 2 2 3 3 3 2 1 2 3 4 4 2 3
3 2 2 2 2 2 1 2 2 1 1 1 1 1 1 1 2 2 2 2 2 3 3 2 2 2 3 3 3 3 3 2 1 2 3 3 3 3
Wind_Direction
263 264 257 280 280 284 278 255 251 275 277 270 263 211 155 123 150 180 163 181 189 195 200 205 206 209 213 217 227 244 255 259 266 268 271 278 277 274
247 263 265 275 293 290 288 286 261 254 271 287 283 259 251 195 179 190 180 179 195 197 199 202 201 202 204 207 212 225 236 249 261 270 276 278 282 279
256 251 249 255 274 290 291 293 282 274 273 289 300 312 304 234 185 203 197 187 187 195 196 196 197 199 202 205 211 219 231 246 257 265 274 276 276 278
247 260 266 265 254 270 287 286 288 275 248 263 281 285 262 229 204 228 233 205 177 188 194 197 200 203 204 207 210 215 225 238 250 257 264 270 273 277
238 241 249 263 267 264 267 272 279 283 271 257 259 256 260 238 218 253 260 237 203 186 189 196 201 204 206 206 208 210 213 220 232 242 249 260 268 271
242 241 238 240 244 249 252 251 263 282 278 272 260 256 251 248 204 243 262 249 234 211 185 185 193 200 204 202 203 204 207 211 219 231 242 252 258 267
243 242 239 227 226 233 257 255 267 270 276 274 272 275 274 282 272 272 262 258 255 236 179 197 189 199 201 195 197 201 205 210 216 227 236 240 246 254
234 234 233 214 201 199 216 234 240 252 271 276 278 271 276 293 297 286 295 293 272 233 220 250 211 208 194 190 198 200 204 208 214 223 233 237 242 249
224 222 243 229 199 207 211 213 229 245 245 255 266 268 270 267 281 289 286 279 269 256 232 254 231 233 209 195 195 200 204 209 215 222 230 237 242 249
221 218 218 215 229 211 232 235 231 249 254 241 253 266 266 278 266 262 260 261 263 270 252 258 261 259 252 201 199 206 211 214 215 220 228 236 243 251
225 224 214 193 179 193 223 245 247 246 285 265 244 238 238 256 264 275 267 263 274 264 256 250 265 273 256 234 214 213 217 217 218 223 230 236 241 248
224 217 216 198 183 194 215 239 245 251 250 268 263 249 239 237 235 228 240 254 268 270 258 258 274 281 272 237 203 206 223 228 231 234 235 232 229 230
230 222 206 172 183 201 217 232 234 245 253 243 241 233 229 224 214 203 208 230 247 256 249 240 268 260 257 274 249 221 211 219 223 236 234 227 222 219
242 222 178 180 194 214 224 224 230 246 248 245 239 234 230 226 213 207 211 215 221 239 252 235 242 246 253 267 271 240 220 217 213 215 215 208 211 218
255 210 189 199 212 227 225 225 225 233 236 240 241 237 228 219 215 217 224 226 233 247 248 230 231 245 243 251 261 266 261 246 210 209 224 218 204 208
239 210 207 218 234 233 223 223 226 236 242 244 246 245 235 231 234 232 234 232 252 263 253 243 240 237 248 254 255 262 253 246 244 232 233 237 207 195
188 193 205 210 220 216 213 219 223 237 266 288 291 285 269 262 266 258 245 247 244 255 265 269 255 240 244 258 260 256 250 258 252 236 243 252 232 201
175 206 214 215 213 207 204 212 230 234 233 233 265 286 288 286 291 298 288 275 275 268 261 270 293 298 289 294 266 263 259 256 258 233 229 247 253 222
199 222 223 214 212 207 203 198 217 227 230 242 248 255 260 270 274 278 280 279 287 284 272 254 238 247 266 274 278 252 243 245 249 236 246 254 261 246
222 228 229 214 200 195 197 211 221 211 207 244 279 285 283 281 278 282 291 298 297 294 294 288 264 249 252 258 267 270 243 230 228 242 254 259 264 259
228 229 218 202 190 182 194 207 207 200 208 242 242 263 269 278 290 293 299 300 292 291 298 306 294 284 267 251 256 253 246 219 228 240 245 243 255 255
219 217 204 195 187 188 194 199 205 200 202 231 239 239 262 275 283 291 294 298 294 293 304 302 299 304 293 271 261 257 257 235 232 265 276 257 230 233
213 215 208 189 185 183 187 203 217 221 225 255 272 264 266 271 276 281 288 288 297 300 304 305 306 302 290 277 271 263 256 244 235 259 277 266 247 252